Cavalier, ND

3:56 AM CDT on June 25, 2017 (GMT -0500)
Cavalier

Weather History for K2C8 - January, 2013

Change the Weather History Date:

Friday, January 25, 2013

  Actual Average (KGAF) Record (KGAF)
Temperature  
Mean Temperature -2 °F -  
Max Temperature 10 °F 14 °F 45 °F (1973)
Min Temperature -14 °F -3 °F -37 °F (1966)
Degree Days  
Heating Degree Days 67    
Moisture  
Dew Point -11 °F    
Average Humidity 73    
Maximum Humidity 85    
Minimum Humidity 60    
Precipitation  
Precipitation 0.09 in - - ()
Sea Level Pressure  
Sea Level Pressure 30.16 in    
Wind  
Wind Speed 13 mph (NW)    
Max Wind Speed 26 mph    
Max Gust Speed 36 mph    
Visibility 6 miles    
Events Rain , Snow    
Averages and records for this station are not official NWS values.
T = Trace of Precipitation, MM = Missing Value Source: NWS Daily Summary

Daily Weather History Graph

Daily Weather History Graph

Search for Another Location

Airport or City:

Trip Planner

Search our weather history database for the weather conditions in past years. The results will help you decide how hot, cold, wet, or windy it might be!

Date:

Astronomy

Jan. 25, 2013 Rise Set
Actual Time 8:08 AM CST 5:17 PM CST
Civil Twilight 7:34 AM CST 5:52 PM CST
Nautical Twilight 6:55 AM CST 6:30 PM CST
Astronomical Twilight 6:18 AM CST 7:07 PM CST
Moon 4:16 PM CST 6:50 AM CST
Length of Visible Light 10h 18m
Length of Day
9h 08m
Waxing Gibbous, 98% of the Moon is Illuminated
Jan 25
Waxing Gibbous
Jan 26
Full
Feb 3
Last Quarter
Feb 10
New
Feb 17
First Quarter

Hourly Weather History & Observations

Time (CST) Temp. Windchill Dew Point Humidity Pressure Visibility Wind Dir Wind Speed Gust Speed Precip Events Conditions
12:15 AM 6.8 °F -7.8 °F 1.4 °F 79% 29.87 in 3.0 mi South 10.4 mph - N/A   Overcast
12:35 AM 6.8 °F -6.9 °F 1.4 °F 79% 29.86 in 4.0 mi South 9.2 mph - N/A Snow Light Snow
12:55 AM 6.8 °F -3.5 °F 1.4 °F 79% 29.85 in 3.0 mi SSW 5.8 mph - N/A Snow Light Snow
1:15 AM 6.8 °F -3.5 °F 3.2 °F 85% 29.85 in 1.8 mi SSW 5.8 mph - N/A Snow Light Snow
1:35 AM 6.8 °F -3.5 °F 3.2 °F 85% 29.84 in 1.2 mi WSW 5.8 mph - 0.05 in Snow Light Snow
1:55 AM 8.6 °F -3.7 °F 5.0 °F 85% 29.84 in 7.0 mi West 8.1 mph - 0.06 in Snow Light Snow
2:15 AM 10.4 °F -6.6 °F 6.8 °F 85% 29.85 in 4.0 mi NW 16.1 mph 19.6 mph N/A Snow Light Snow
2:35 AM 10.4 °F -9.1 °F 5.0 °F 79% 29.86 in 1.8 mi NW 21.9 mph 32.2 mph 0.01 in Snow Light Snow
2:55 AM 8.6 °F -11.0 °F 5.0 °F 85% 29.88 in 1.5 mi NW 20.7 mph 28.8 mph 0.01 in Rain Light Freezing Rain
3:15 AM 6.8 °F -14.7 °F 1.4 °F 79% 29.89 in 0.5 mi NW 24.2 mph 35.7 mph N/A Snow Snow
3:35 AM 6.8 °F -13.8 °F -0.4 °F 72% 29.91 in 0.8 mi NW 21.9 mph 33.4 mph 0.01 in Snow Light Snow
3:55 AM 5.0 °F -16.7 °F -0.4 °F 78% 29.93 in 0.8 mi NNW 23.0 mph 33.4 mph 0.01 in Snow Light Snow
4:15 AM 1.4 °F -22.7 °F -2.2 °F 85% 29.94 in 1.0 mi NNW 26.5 mph 33.4 mph N/A Rain Light Freezing Rain
4:35 AM 1.4 °F -21.9 °F -2.2 °F 85% 29.95 in 0.8 mi NW 24.2 mph 32.2 mph 0.01 in Rain Light Freezing Rain
4:55 AM 1.4 °F -21.4 °F -4.0 °F 78% 29.96 in 1.0 mi NNW 23.0 mph 32.2 mph 0.01 in Rain Light Freezing Rain
5:15 AM -0.4 °F -23.3 °F -4.0 °F 85% 29.98 in 1.5 mi NNW 21.9 mph 29.9 mph N/A Rain Light Freezing Rain
5:35 AM -0.4 °F -23.3 °F -5.8 °F 78% 30.00 in 1.8 mi NNW 21.9 mph 31.1 mph N/A Rain Light Freezing Rain
6:15 AM -2.2 °F -25.7 °F -7.6 °F 78% 30.03 in 1.8 mi NNW 21.9 mph 31.1 mph N/A Rain Light Freezing Rain
6:35 AM -2.2 °F -25.2 °F -9.4 °F 71% 30.05 in 1.8 mi NW 20.7 mph 26.5 mph N/A Rain Light Freezing Rain
6:55 AM -2.2 °F -24.7 °F -9.4 °F 71% 30.07 in 2.5 mi NW 19.6 mph 26.5 mph N/A Rain Light Freezing Rain
7:35 AM -4.0 °F -27.6 °F -11.2 °F 71% 30.09 in 2.5 mi NNW 20.7 mph 25.3 mph N/A   Haze
7:55 AM -4.0 °F -27.0 °F -11.2 °F 71% 30.11 in 3.0 mi NW 19.6 mph 25.3 mph N/A Rain Light Freezing Rain
8:15 AM -5.8 °F -29.9 °F -11.2 °F 77% 30.12 in 1.8 mi NNW 20.7 mph 26.5 mph N/A Rain Light Freezing Rain
8:35 AM -5.8 °F -28.2 °F -13.0 °F 71% 30.14 in 2.5 mi NNW 17.3 mph 23.0 mph N/A   Haze
8:55 AM -5.8 °F -28.8 °F -13.0 °F 71% 30.15 in 2.5 mi NW 18.4 mph 25.3 mph N/A   Haze
9:15 AM -5.8 °F -30.5 °F -13.0 °F 71% 30.17 in 2.5 mi NW 21.9 mph 26.5 mph N/A   Haze
9:35 AM -5.8 °F -29.9 °F -13.0 °F 71% 30.18 in 1.2 mi NNW 20.7 mph 27.6 mph N/A Rain Light Freezing Rain
9:55 AM -5.8 °F -29.4 °F -13.0 °F 71% 30.19 in 2.0 mi NNW 19.6 mph 24.2 mph N/A Rain Light Freezing Rain
10:15 AM -5.8 °F -29.4 °F -13.0 °F 71% 30.21 in 2.5 mi NNW 19.6 mph 25.3 mph N/A   Haze
10:35 AM -5.8 °F -28.2 °F -13.0 °F 71% 30.21 in 1.8 mi NNW 17.3 mph 25.3 mph N/A   Haze
10:55 AM -5.8 °F -29.4 °F -13.0 °F 71% 30.23 in 2.0 mi NNW 19.6 mph 23.0 mph N/A   Haze
11:15 AM -5.8 °F -28.2 °F -13.0 °F 71% 30.24 in 1.8 mi NNW 17.3 mph 24.2 mph N/A   Haze
11:35 AM -5.8 °F -26.8 °F -13.0 °F 71% 30.25 in 3.0 mi NNW 15.0 mph 23.0 mph N/A   Haze
11:55 AM -4.0 °F -24.5 °F -13.0 °F 65% 30.26 in 3.0 mi NNW 15.0 mph 21.9 mph N/A   Haze
12:15 PM -4.0 °F -26.4 °F -13.0 °F 65% 30.26 in 3.0 mi NNW 18.4 mph 21.9 mph N/A   Haze
12:35 PM -4.0 °F -25.2 °F -13.0 °F 65% 30.27 in 4.0 mi NNW 16.1 mph 20.7 mph N/A   Haze
12:55 PM -4.0 °F -24.5 °F -11.2 °F 71% 30.27 in 3.0 mi NNW 15.0 mph - N/A   Haze
1:15 PM -4.0 °F -23.7 °F - N/A% 30.27 in 9.0 mi NNW 13.8 mph - N/A   Partly Cloudy
1:35 PM -4.0 °F -22.1 °F -13.0 °F 65% 30.27 in 10.0 mi NNW 11.5 mph - N/A   Clear
1:55 PM -4.0 °F -23.7 °F -13.0 °F 65% 30.27 in 10.0 mi North 13.8 mph - N/A   Clear
2:15 PM -4.0 °F -23.0 °F -11.2 °F 71% 30.28 in 10.0 mi NNW 12.7 mph - N/A   Clear
2:35 PM -4.0 °F -23.0 °F -13.0 °F 65% 30.28 in 10.0 mi NNW 12.7 mph - N/A   Clear
2:55 PM -4.0 °F -20.2 °F -11.2 °F 71% 30.27 in 10.0 mi NNW 9.2 mph - N/A   Clear
3:15 PM -2.2 °F -15.6 °F -11.2 °F 66% 30.28 in 10.0 mi NNW 6.9 mph - N/A   Clear
3:35 PM -2.2 °F -15.6 °F - N/A% 30.28 in 10.0 mi NNW 6.9 mph - N/A   Clear
3:55 PM -2.2 °F -14.2 °F -11.2 °F 66% 30.28 in 10.0 mi North 5.8 mph - N/A   Clear
4:15 PM -2.2 °F -14.2 °F -13.0 °F 60% 30.28 in 10.0 mi NNW 5.8 mph - N/A   Clear
4:35 PM -4.0 °F -16.3 °F -13.0 °F 65% 30.28 in 10.0 mi North 5.8 mph - N/A   Clear
4:55 PM -4.0 °F -17.8 °F -13.0 °F 65% 30.29 in 10.0 mi North 6.9 mph - N/A   Clear
5:15 PM -4.0 °F -16.3 °F -13.0 °F 65% 30.30 in 10.0 mi North 5.8 mph - N/A   Clear
5:35 PM -5.8 °F -16.7 °F -13.0 °F 71% 30.30 in 10.0 mi North 4.6 mph - N/A   Clear
5:55 PM -5.8 °F - -13.0 °F 71% 30.30 in 10.0 mi Calm Calm - N/A   Clear
6:15 PM -7.6 °F - -14.8 °F 71% 30.28 in 10.0 mi Calm Calm - N/A   Clear
6:35 PM -9.4 °F - -16.6 °F 71% 30.28 in 10.0 mi Calm Calm - N/A   Clear
6:55 PM -9.4 °F - -16.6 °F 71% 30.28 in 10.0 mi Calm Calm - N/A   Clear
7:15 PM -11.2 °F - -18.4 °F 70% 30.28 in 10.0 mi Calm Calm - N/A   Clear
7:35 PM -13.0 °F - -20.2 °F 70% 30.28 in 10.0 mi Calm Calm - N/A   Clear
7:55 PM -13.0 °F - -20.2 °F 70% 30.29 in 10.0 mi Calm Calm - N/A   Clear
8:15 PM -13.0 °F - -20.2 °F 70% 30.30 in 10.0 mi Calm Calm - N/A   Clear
8:35 PM -13.0 °F - -20.2 °F 70% 30.31 in 10.0 mi Calm Calm - N/A   Clear
8:55 PM -13.0 °F - -20.2 °F 70% 30.31 in 10.0 mi Calm Calm - N/A   Clear
9:15 PM -14.8 °F - -22.0 °F 70% 30.30 in 10.0 mi Calm Calm - N/A   Clear
9:35 PM -13.0 °F - -20.2 °F 70% 30.30 in 10.0 mi Calm Calm - N/A   Clear
9:55 PM -13.0 °F - -20.2 °F 70% 30.30 in 10.0 mi Calm Calm - N/A   Clear
10:15 PM -13.0 °F - -20.2 °F 70% 30.30 in 10.0 mi Calm Calm - N/A   Clear
10:35 PM -14.8 °F - -22.0 °F 70% 30.29 in 10.0 mi Calm Calm - N/A   Clear
10:55 PM -14.8 °F - -22.0 °F 70% 30.29 in 10.0 mi Calm Calm - N/A   Partly Cloudy
11:15 PM -13.0 °F -25.1 °F -20.2 °F 70% 30.28 in 10.0 mi SSE 4.6 mph - N/A   Mostly Cloudy
11:35 PM -9.4 °F -22.7 °F -14.8 °F 77% 30.28 in 10.0 mi South 5.8 mph - N/A   Overcast
11:55 PM -7.6 °F -23.4 °F -13.0 °F 77% 30.28 in 10.0 mi South 8.1 mph - N/A   Overcast